DW3649 Athens GR current weather conditions

sailwx.info

Wind from 349

Air temperature 16.7° C
Dewpoint 9.6° C

Last reported at 2018-Oct-17 02:00 UTC.
Time now 2018-Oct-17 02:47 UTC

Location: N 37°58' E 023°45'.
View on Google Maps.

See reports from other nearby stations

  
Tides and Currents Weather Stations Pressure Air Temp Water Temp Dewpoint Dewpoint Depression Visibility Wind Speed Wind Dir Waves Ship Positions
date/time (UTC)wind fromknots sea level pressurealtimeterstation pressurevisibilityair tempwater tempwave heightnotes
2018-Oct-17 02:00 349 16.7
2018-Oct-17 01:45 349 16.7
2018-Oct-17 01:30 349 16.7
2018-Oct-17 01:15 349 0 16.7
2018-Oct-17 01:00 349 16.7
2018-Oct-17 00:47 349 16.7
2018-Oct-17 00:31 349 16.7
2018-Oct-17 00:16 349 0 17.2
2018-Oct-17 00:03 349 17.2
2018-Oct-16 23:46 349 17.2
2018-Oct-16 23:31 349 17.2
2018-Oct-16 23:16 349 1 17.8
2018-Oct-16 23:01 340 1 17.8
2018-Oct-16 22:46 342 1 17.8
2018-Oct-16 22:32 005 1 17.2
2018-Oct-16 22:17 005 0 17.2
2018-Oct-16 22:01 005 1 17.2
2018-Oct-16 21:46 049 1 17.2
2018-Oct-16 21:30 049 1 17.2
2018-Oct-16 21:17 049 2 17.2
2018-Oct-16 21:01 049 2 17.2
2018-Oct-16 20:46 051 1 17.2
2018-Oct-16 20:30 051 2 17.8
2018-Oct-16 20:15 051 0 17.8
2018-Oct-16 20:01 051 1 17.8
2018-Oct-16 19:46 051 1 17.8
2018-Oct-16 19:30 051 2 17.8
2018-Oct-16 19:16 051 1 17.8
2018-Oct-16 19:01 051 1 17.8
2018-Oct-16 18:46 049 1 18.3
2018-Oct-16 18:31 049 1 18.3
2018-Oct-16 18:15 049 0 18.3
2018-Oct-16 18:01 049 1 18.3
2018-Oct-16 17:46 049 1 18.3
2018-Oct-16 17:30 049 0 18.9
2018-Oct-16 17:17 048 1 18.9
2018-Oct-16 17:00 046 2 18.9
2018-Oct-16 16:45 046 2 18.9
2018-Oct-16 16:30 032 19.4
2018-Oct-16 16:15 032 1 19.4
2018-Oct-16 16:00 044 2 20.0
2018-Oct-16 15:46 032 0 20.6
2018-Oct-16 15:31 012 1 21.1
2018-Oct-16 15:15 344 0 21.7
2018-Oct-16 15:00 038 1 21.7
2018-Oct-16 14:46 044 2 21.7
2018-Oct-16 14:30 030 1 22.2
2018-Oct-16 14:15 056 0 21.7
2018-Oct-16 14:01 057 2 21.7
2018-Oct-16 13:45 051 2 21.7
2018-Oct-16 13:30 033 1 22.2
2018-Oct-16 13:15 033 0 22.2
2018-Oct-16 13:00 035 2 22.2
2018-Oct-16 12:45 039 2 22.2
2018-Oct-16 12:30 355 1 22.8
2018-Oct-16 12:15 038 0 22.8
2018-Oct-16 12:00 040 1 22.8
2018-Oct-16 11:45 038 1 23.3
2018-Oct-16 11:30 017 1 22.8
2018-Oct-16 11:15 023 2 22.8
2018-Oct-16 11:00 028 2 22.2
2018-Oct-16 10:45 040 4 22.2
2018-Oct-16 10:30 029 2 22.2
2018-Oct-16 10:15 351 3 22.2
2018-Oct-16 10:00 330 2 21.7
2018-Oct-16 09:45 048 2 21.7
2018-Oct-16 09:30 027 3 21.7
2018-Oct-16 09:15 034 3 21.7
2018-Oct-16 09:01 028 3 21.1
2018-Oct-16 08:46 035 3 21.1
2018-Oct-16 08:32 059 5 20.6
2018-Oct-16 08:16 031 2 20.6
2018-Oct-16 08:01
2018-Oct-16 07:46
2018-Oct-16 07:31
2018-Oct-16 07:15
2018-Oct-16 07:00
2018-Oct-16 06:45
2018-Oct-16 06:30
2018-Oct-16 06:15
2018-Oct-16 06:00
2018-Oct-16 05:45
2018-Oct-16 05:30
2018-Oct-16 05:16
2018-Oct-16 05:01
2018-Oct-16 04:46
2018-Oct-16 04:16 057 16.1
2018-Oct-16 04:01 057 16.1
2018-Oct-16 03:46 057 16.1
2018-Oct-16 03:31 057 16.1
2018-Oct-16 03:16 057 16.1
2018-Oct-16 03:01 057 16.1
2018-Oct-16 02:46 057 1 16.1
2018-Oct-16 02:30 057 1 16.1
2018-Oct-16 02:15 058 2 16.1
2018-Oct-16 02:01 059 1 16.1
2018-Oct-16 01:46 059 0 16.1
2018-Oct-16 01:31 059 16.1
2018-Oct-16 01:16 059 16.1
2018-Oct-16 01:00 059 16.1
2018-Oct-16 00:45 059 16.1
2018-Oct-16 00:30 059 16.7
2018-Oct-16 00:15 059 16.7
2018-Oct-16 00:00 059 16.7
2018-Oct-15 23:45 059 16.7
2018-Oct-15 23:30 059 0 16.7
2018-Oct-15 23:16 059 0 16.7
2018-Oct-15 23:00 059 0 16.7
2018-Oct-15 22:45 059 16.7
2018-Oct-15 22:31 059 0 16.7
2018-Oct-15 22:15 059 16.7
2018-Oct-15 22:00 059 1 16.7
2018-Oct-15 21:45 059 0 16.7
2018-Oct-15 21:30 059 1 17.2
2018-Oct-15 21:15 060 1 17.2
2018-Oct-15 21:00 061 2 17.2
2018-Oct-15 20:45 061 0 17.2
2018-Oct-15 20:30 061 0 17.2
2018-Oct-15 20:15 061 17.2
2018-Oct-15 20:01 061 17.2
2018-Oct-15 19:45 061 0 17.2
2018-Oct-15 19:30 061 0 17.2
2018-Oct-15 19:15 063 1 17.2
2018-Oct-15 19:00 068 3 17.2
2018-Oct-15 18:45 069 3 17.2
2018-Oct-15 18:30 051 3 16.7
2018-Oct-15 18:15 053 3 16.7
2018-Oct-15 18:00 055 4 16.7
2018-Oct-15 17:45 055 3 17.2
2018-Oct-15 17:30 055 3 17.2
2018-Oct-15 17:15 061 2 17.2
2018-Oct-15 17:00 060 1 17.2
2018-Oct-15 16:45 061 1 17.2
2018-Oct-15 16:30 061 2 17.2
2018-Oct-15 16:15 063 0 17.8
2018-Oct-15 16:00 063 0 17.8
2018-Oct-15 15:45 063 0 17.8
2018-Oct-15 15:30 064 3 17.8
2018-Oct-15 15:15 060 3 17.8
2018-Oct-15 15:00 065 1 18.3
2018-Oct-15 14:45 069 1 18.3
2018-Oct-15 14:30 071 3 17.8
2018-Oct-15 14:15 053 4 18.3
2018-Oct-15 14:00 058 4 18.3
2018-Oct-15 13:45 065 3 18.9
2018-Oct-15 13:30 074 3 19.4
2018-Oct-15 13:15 057 3 20.0
2018-Oct-15 13:00 042 3 19.4
2018-Oct-15 12:45 005 1 19.4
2018-Oct-15 12:16 005 1 19.4
2018-Oct-15 12:01 355 1 18.9
2018-Oct-15 11:46 360 2 17.8
2018-Oct-15 11:32 345 1 17.8
2018-Oct-15 11:16 326 3 17.8
2018-Oct-15 11:01 329 2 17.8
2018-Oct-15 10:46 315 1 17.8
2018-Oct-15 10:31 328 2 17.2
2018-Oct-15 10:16 321 0 17.2
2018-Oct-15 10:01 321 3 17.2
2018-Oct-15 09:46 355 0 17.2
2018-Oct-15 09:31 355 0 17.2
2018-Oct-15 09:16 355 0 16.7
2018-Oct-15 09:01 355 16.7
2018-Oct-15 08:46 355 16.7
2018-Oct-15 08:31 355 16.7
2018-Oct-15 08:16 355 0 16.7
2018-Oct-15 08:00 355 16.7
2018-Oct-15 07:46 355 16.7
2018-Oct-15 07:30 355 0 16.7
2018-Oct-15 07:16 355 0 16.7
2018-Oct-15 07:00 355 0 16.7
2018-Oct-15 06:46 355 0 16.7
2018-Oct-15 06:31 355 16.7
2018-Oct-15 06:16
2018-Oct-15 06:00
2018-Oct-15 05:45
2018-Oct-15 05:31
2018-Oct-15 05:15
2018-Oct-15 05:00
2018-Oct-15 04:45
2018-Oct-15 04:31
2018-Oct-15 04:17 355 16.7
2018-Oct-15 04:01 355 16.7
2018-Oct-15 03:47 355 1 16.7
2018-Oct-15 03:31 355 0 16.7
2018-Oct-15 03:18 355 0 16.7
2018-Oct-15 03:01 351 0 16.7
2018-Oct-15 02:46 351 1 16.7
2018-Oct-15 02:31 351 1 16.7
2018-Oct-15 02:16 355 1 16.7
2018-Oct-15 02:01 033 2 16.7